Time,TemperatureF,DewpointF,PressureIn,WindDirection,WindDirectionDegrees,WindSpeedMPH,WindSpeedGustMPH,Humidity,HourlyPrecipIn,Conditions,Clouds,dailyrainin,SoftwareType,DateUTC
2013-08-07 00:02:00,76.0,72.0,29.85,South,182,0.0,0.0,88,0.00,,,0.71,,2013-08-07 05:02:00,
2013-08-07 00:11:00,76.0,72.0,29.85,South,182,0.0,0.0,88,0.00,,,0.71,,2013-08-07 05:11:00,
2013-08-07 00:22:00,76.0,72.0,29.85,South,182,0.0,0.0,88,0.00,,,0.71,,2013-08-07 05:22:00,
2013-08-07 00:32:00,76.0,72.0,29.85,South,182,0.0,0.0,88,0.00,,,0.71,,2013-08-07 05:32:00,
2013-08-07 00:43:00,76.0,72.0,29.85,South,182,0.0,0.0,87,0.00,,,0.71,,2013-08-07 05:43:00,
2013-08-07 00:52:00,76.0,72.0,29.85,South,182,0.0,0.0,87,0.00,,,0.71,,2013-08-07 05:52:00,
2013-08-07 01:02:00,77.0,72.0,29.85,South,182,0.0,1.0,86,0.00,,,0.71,,2013-08-07 06:02:00,
2013-08-07 01:11:00,77.0,72.0,29.84,South,182,0.0,0.0,86,0.00,,,0.71,,2013-08-07 06:11:00,
2013-08-07 01:22:00,77.0,72.0,29.84,South,182,0.0,0.0,86,0.00,,,0.71,,2013-08-07 06:22:00,
2013-08-07 01:32:00,77.0,72.0,29.83,SE,127,0.0,1.0,85,0.00,,,0.71,,2013-08-07 06:32:00,
2013-08-07 01:43:00,77.0,72.0,29.83,SE,127,0.0,1.0,85,0.00,,,0.71,,2013-08-07 06:43:00,
2013-08-07 01:52:00,77.0,72.0,29.83,SE,127,0.0,1.0,85,0.00,,,0.71,,2013-08-07 06:52:00,
2013-08-07 02:01:00,76.0,72.0,29.81,East,84,0.0,1.0,86,0.00,,,0.71,,2013-08-07 07:01:00,
2013-08-07 02:12:00,76.0,72.0,29.80,ESE,104,0.0,1.0,87,0.00,,,0.71,,2013-08-07 07:12:00,
2013-08-07 02:22:00,76.0,72.0,29.80,ESE,104,0.0,1.0,87,0.00,,,0.71,,2013-08-07 07:22:00,
2013-08-07 02:33:00,76.0,72.0,29.79,ESE,106,0.0,1.0,87,0.00,,,0.71,,2013-08-07 07:33:00,
2013-08-07 02:43:00,76.0,72.0,29.79,ESE,123,0.0,2.0,87,0.00,,,0.71,,2013-08-07 07:43:00,
2013-08-07 02:52:00,76.0,72.0,29.79,ESE,123,0.0,2.0,87,0.00,,,0.71,,2013-08-07 07:52:00,
2013-08-07 03:01:00,76.0,72.0,29.79,SSE,157,0.0,2.0,87,0.00,,,0.71,,2013-08-07 08:01:00,
2013-08-07 03:11:00,76.0,72.0,29.80,SSE,161,0.0,3.0,87,0.00,,,0.71,,2013-08-07 08:11:00,
2013-08-07 03:22:00,76.0,72.0,29.80,SSE,161,0.0,3.0,87,0.00,,,0.71,,2013-08-07 08:22:00,
2013-08-07 03:32:00,76.0,72.0,29.80,SW,217,1.0,6.0,87,0.00,,,0.28,,2013-08-07 08:32:00,
2013-08-07 03:44:00,76.0,72.0,29.80,SSW,213,0.0,1.0,88,0.00,,,0.28,,2013-08-07 08:44:00,
2013-08-07 03:52:00,76.0,72.0,29.80,SSW,213,0.0,1.0,88,0.00,,,0.28,,2013-08-07 08:52:00,
2013-08-07 04:02:00,75.0,71.0,29.82,SSW,213,4.0,11.0,88,0.00,,,0.28,,2013-08-07 09:02:00,
2013-08-07 04:11:00,73.0,67.0,29.83,West,262,2.0,17.0,82,0.00,,,0.28,,2013-08-07 09:11:00,
2013-08-07 04:22:00,73.0,67.0,29.83,West,262,2.0,17.0,82,0.00,,,0.28,,2013-08-07 09:22:00,
2013-08-07 04:32:00,71.0,67.0,29.83,West,271,3.0,10.0,87,0.11,,,0.13,,2013-08-07 09:32:00,
2013-08-07 04:43:00,70.0,67.0,29.83,WSW,254,3.0,9.0,90,0.23,,,0.25,,2013-08-07 09:43:00,
2013-08-07 04:54:00,70.0,67.0,29.83,WSW,254,3.0,9.0,90,0.23,,,0.25,,2013-08-07 09:54:00,
2013-08-07 05:01:00,69.0,67.0,29.84,West,265,2.0,14.0,92,0.99,,,1.01,,2013-08-07 10:01:00,
2013-08-07 05:11:00,69.0,67.0,29.85,WNW,294,2.0,10.0,93,1.09,,,1.11,,2013-08-07 10:11:00,
2013-08-07 05:22:00,69.0,67.0,29.85,WNW,294,2.0,10.0,93,1.09,,,1.11,,2013-08-07 10:22:00,
2013-08-07 05:32:00,69.0,67.0,29.86,NW,305,1.0,9.0,94,1.00,,,1.12,,2013-08-07 10:32:00,
2013-08-07 05:43:00,69.0,67.0,29.86,West,281,0.0,9.0,94,0.89,,,1.12,,2013-08-07 10:43:00,
2013-08-07 05:52:00,69.0,67.0,29.86,West,281,0.0,9.0,94,0.89,,,1.12,,2013-08-07 10:52:00,
2013-08-07 06:01:00,69.0,67.0,29.88,NW,304,0.0,6.0,94,0.14,,,1.17,,2013-08-07 11:01:00,
2013-08-07 06:11:00,69.0,67.0,29.86,WNW,299,2.0,10.0,94,0.24,,,1.34,,2013-08-07 11:11:00,
2013-08-07 06:22:00,69.0,67.0,29.86,WNW,299,2.0,10.0,94,0.24,,,1.34,,2013-08-07 11:22:00,
2013-08-07 06:32:00,68.0,66.0,29.86,West,268,0.0,6.0,94,0.55,,,1.67,,2013-08-07 11:32:00,
2013-08-07 06:43:00,68.0,67.0,29.87,WNW,288,0.0,4.0,95,0.55,,,1.68,,2013-08-07 11:43:00,
2013-08-07 06:52:00,68.0,67.0,29.87,WNW,288,0.0,4.0,95,0.55,,,1.68,,2013-08-07 11:52:00,
2013-08-07 07:02:00,69.0,68.0,29.86,WNW,288,0.0,0.0,95,0.54,,,1.71,,2013-08-07 12:02:00,
2013-08-07 07:11:00,69.0,68.0,29.86,WNW,289,0.0,0.0,95,0.38,,,1.74,,2013-08-07 12:11:00,
2013-08-07 07:22:00,69.0,68.0,29.86,WNW,289,0.0,0.0,95,0.38,,,1.74,,2013-08-07 12:22:00,
2013-08-07 07:32:00,69.0,68.0,29.87,East,80,0.0,6.0,95,0.07,,,1.74,,2013-08-07 12:32:00,
2013-08-07 07:43:00,69.0,68.0,29.86,NE,41,0.0,0.0,95,0.07,,,1.75,,2013-08-07 12:43:00,
2013-08-07 07:52:00,69.0,68.0,29.86,NE,41,0.0,0.0,95,0.07,,,1.75,,2013-08-07 12:52:00,
2013-08-07 08:02:00,69.0,68.0,29.86,NE,41,0.0,0.0,95,0.03,,,1.75,,2013-08-07 13:02:00,
2013-08-07 08:11:00,69.0,68.0,29.86,NE,51,0.0,1.0,95,0.01,,,1.75,,2013-08-07 13:11:00,
2013-08-07 08:22:00,69.0,68.0,29.86,NE,51,0.0,1.0,95,0.01,,,1.75,,2013-08-07 13:22:00,
2013-08-07 08:32:00,69.0,68.0,29.88,NE,51,0.0,0.0,95,0.01,,,1.75,,2013-08-07 13:32:00,
2013-08-07 08:44:00,69.0,68.0,29.89,North,360,0.0,4.0,95,0.00,,,1.75,,2013-08-07 13:44:00,
2013-08-07 08:53:00,69.0,68.0,29.89,North,360,0.0,4.0,95,0.00,,,1.75,,2013-08-07 13:53:00,
2013-08-07 09:02:00,69.0,68.0,29.88,NNE,15,0.0,5.0,95,0.00,,,1.75,,2013-08-07 14:02:00,
2013-08-07 09:11:00,70.0,69.0,29.89,NNE,15,0.0,0.0,96,0.00,,,1.75,,2013-08-07 14:11:00,
2013-08-07 09:22:00,70.0,69.0,29.89,NNE,15,0.0,0.0,96,0.00,,,1.75,,2013-08-07 14:22:00,
2013-08-07 09:33:00,71.0,70.0,29.89,NNE,14,0.0,1.0,96,0.00,,,1.74,,2013-08-07 14:33:00,
2013-08-07 09:43:00,71.0,70.0,29.91,West,271,0.0,6.0,96,0.00,,,1.74,,2013-08-07 14:43:00,
2013-08-07 09:52:00,71.0,70.0,29.91,West,271,0.0,6.0,96,0.00,,,1.74,,2013-08-07 14:52:00,
2013-08-07 10:02:00,72.0,71.0,29.91,SW,230,0.0,7.0,96,0.00,,,1.74,,2013-08-07 15:02:00,
2013-08-07 10:12:00,72.0,70.0,29.91,WSW,255,0.0,8.0,95,0.00,,,1.74,,2013-08-07 15:12:00,
2013-08-07 10:22:00,72.0,70.0,29.91,WSW,255,0.0,8.0,95,0.00,,,1.74,,2013-08-07 15:22:00,
2013-08-07 10:33:00,73.0,71.0,29.92,SW,221,0.0,1.0,95,0.00,,,1.74,,2013-08-07 15:33:00,
2013-08-07 10:43:00,73.0,71.0,29.93,SW,216,0.0,0.0,93,0.00,,,1.74,,2013-08-07 15:43:00,
2013-08-07 10:53:00,73.0,71.0,29.93,SW,216,0.0,0.0,93,0.00,,,1.74,,2013-08-07 15:53:00,
2013-08-07 11:02:00,74.0,71.0,29.94,SSW,202,0.0,1.0,90,0.00,,,1.74,,2013-08-07 16:02:00,
2013-08-07 11:11:00,76.0,72.0,29.94,ENE,59,0.0,5.0,86,0.00,,,1.74,,2013-08-07 16:11:00,
2013-08-07 11:22:00,76.0,72.0,29.94,ENE,59,0.0,5.0,86,0.00,,,1.74,,2013-08-07 16:22:00,
2013-08-07 11:33:00,76.0,70.0,29.95,South,171,0.0,7.0,83,0.00,,,1.74,,2013-08-07 16:33:00,
2013-08-07 11:43:00,76.0,69.0,29.94,SE,139,0.0,1.0,80,0.00,,,1.74,,2013-08-07 16:43:00,
2013-08-07 11:53:00,76.0,69.0,29.94,SE,139,0.0,1.0,80,0.00,,,1.74,,2013-08-07 16:53:00,
2013-08-07 12:01:00,78.0,71.0,29.95,WNW,291,0.0,6.0,80,0.00,,,1.74,,2013-08-07 17:01:00,
2013-08-07 12:11:00,78.0,71.0,29.94,SSW,203,0.0,3.0,79,0.00,,,1.74,,2013-08-07 17:11:00,
2013-08-07 12:22:00,78.0,71.0,29.94,SSW,203,0.0,3.0,79,0.00,,,1.74,,2013-08-07 17:22:00,
2013-08-07 12:43:00,79.0,72.0,29.93,WNW,296,0.0,5.0,79,0.00,,,1.74,,2013-08-07 17:43:00,
2013-08-07 12:52:00,79.0,72.0,29.93,WNW,296,0.0,5.0,79,0.00,,,1.74,,2013-08-07 17:52:00,
2013-08-07 13:02:00,79.0,72.0,29.93,WNW,303,1.0,5.0,79,0.00,,,1.74,,2013-08-07 18:02:00,
2013-08-07 13:11:00,80.0,72.0,29.93,SSW,205,0.0,8.0,77,0.00,,,1.74,,2013-08-07 18:11:00,
2013-08-07 13:22:00,80.0,72.0,29.93,SSW,205,0.0,8.0,77,0.00,,,1.74,,2013-08-07 18:22:00,
2013-08-07 13:32:00,80.0,71.0,29.93,SW,229,1.0,7.0,75,0.00,,,1.74,,2013-08-07 18:32:00,
2013-08-07 13:43:00,81.0,72.0,29.92,WSW,242,0.0,4.0,74,0.00,,,1.74,,2013-08-07 18:43:00,
2013-08-07 13:52:00,81.0,72.0,29.92,WSW,242,0.0,4.0,74,0.00,,,1.74,,2013-08-07 18:52:00,
2013-08-07 14:01:00,82.0,72.0,29.92,WSW,250,0.0,2.0,73,0.00,,,1.74,,2013-08-07 19:01:00,
2013-08-07 14:11:00,81.0,72.0,29.92,West,271,0.0,3.0,75,0.00,,,1.74,,2013-08-07 19:11:00,
2013-08-07 14:22:00,81.0,72.0,29.92,West,271,0.0,3.0,75,0.00,,,1.74,,2013-08-07 19:22:00,
2013-08-07 14:32:00,83.0,73.0,29.92,WNW,291,0.0,1.0,72,0.00,,,1.74,,2013-08-07 19:32:00,
2013-08-07 14:44:00,83.0,73.0,29.91,West,275,0.0,1.0,71,0.00,,,1.74,,2013-08-07 19:44:00,
2013-08-07 14:52:00,83.0,73.0,29.91,West,275,0.0,1.0,71,0.00,,,1.74,,2013-08-07 19:52:00,
2013-08-07 15:02:00,82.0,72.0,29.92,WSW,241,0.0,1.0,73,0.00,,,1.74,,2013-08-07 20:02:00,
2013-08-07 15:11:00,82.0,72.0,29.92,WSW,241,0.0,1.0,73,0.00,,,1.74,,2013-08-07 20:11:00,
2013-08-07 15:22:00,82.0,72.0,29.92,SW,221,0.0,1.0,73,0.00,,,1.74,,2013-08-07 20:22:00,
2013-08-07 15:32:00,81.0,72.0,29.92,WSW,252,0.0,6.0,75,0.00,,,1.74,,2013-08-07 20:32:00,
2013-08-07 15:43:00,81.0,72.0,29.92,WSW,252,0.0,6.0,75,0.00,,,1.74,,2013-08-07 20:43:00,
2013-08-07 15:52:00,81.0,72.0,29.92,WNW,290,0.0,5.0,75,0.00,,,1.74,,2013-08-07 20:52:00,
2013-08-07 16:01:00,81.0,72.0,29.92,West,263,0.0,4.0,75,0.00,,,1.74,,2013-08-07 21:01:00,
2013-08-07 16:11:00,81.0,72.0,29.92,West,263,0.0,4.0,75,0.00,,,1.74,,2013-08-07 21:11:00,
2013-08-07 16:22:00,81.0,72.0,29.93,West,273,1.0,6.0,75,0.00,,,1.74,,2013-08-07 21:22:00,
2013-08-07 16:32:00,82.0,73.0,29.92,West,272,0.0,4.0,74,0.00,,,1.74,,2013-08-07 21:32:00,
2013-08-07 16:43:00,82.0,73.0,29.92,West,272,0.0,4.0,74,0.00,,,1.74,,2013-08-07 21:43:00,
2013-08-07 16:52:00,83.0,74.0,29.92,WSW,252,0.0,3.0,75,0.00,,,1.74,,2013-08-07 21:52:00,
2013-08-07 17:01:00,83.0,74.0,29.92,West,273,0.0,3.0,74,0.00,,,1.74,,2013-08-07 22:01:00,
2013-08-07 17:12:00,83.0,74.0,29.92,West,273,0.0,3.0,74,0.00,,,1.74,,2013-08-07 22:12:00,
2013-08-07 17:22:00,83.0,74.0,29.92,WNW,298,0.0,2.0,74,0.00,,,1.74,,2013-08-07 22:22:00,
2013-08-07 17:32:00,83.0,74.0,29.91,WNW,293,0.0,1.0,74,0.00,,,1.74,,2013-08-07 22:32:00,
2013-08-07 17:43:00,83.0,74.0,29.91,WNW,293,0.0,1.0,74,0.00,,,1.74,,2013-08-07 22:43:00,
2013-08-07 17:52:00,83.0,74.0,29.91,WNW,282,0.0,6.0,74,0.00,,,1.74,,2013-08-07 22:52:00,
2013-08-07 18:01:00,84.0,74.0,29.91,WNW,292,0.0,4.0,73,0.00,,,1.74,,2013-08-07 23:01:00,
2013-08-07 18:11:00,84.0,74.0,29.91,WNW,292,0.0,4.0,73,0.00,,,1.74,,2013-08-07 23:11:00,
2013-08-07 18:22:00,84.0,74.0,29.91,NNW,348,0.0,2.0,71,0.00,,,1.74,,2013-08-07 23:22:00,
2013-08-07 18:32:00,84.0,74.0,29.91,NNW,348,0.0,1.0,73,0.00,,,1.74,,2013-08-07 23:32:00,
2013-08-07 18:43:00,84.0,74.0,29.91,NNW,348,0.0,1.0,73,0.00,,,1.74,,2013-08-07 23:43:00,
2013-08-07 18:52:00,84.0,74.0,29.91,NNW,348,0.0,0.0,72,0.00,,,1.74,,2013-08-07 23:52:00,
2013-08-07 19:01:00,83.0,73.0,29.91,NNW,348,0.0,1.0,73,0.00,,,1.74,,2013-08-08 00:01:00,
2013-08-07 19:11:00,83.0,73.0,29.91,NNW,348,0.0,1.0,73,0.00,,,1.74,,2013-08-08 00:11:00,
2013-08-07 19:22:00,82.0,73.0,29.91,NNW,334,0.0,6.0,75,0.00,,,1.74,,2013-08-08 00:22:00,
2013-08-07 19:32:00,81.0,72.0,29.91,NW,311,0.0,9.0,74,0.00,,,1.74,,2013-08-08 00:32:00,
2013-08-07 19:42:00,81.0,72.0,29.91,NW,311,0.0,9.0,74,0.00,,,1.74,,2013-08-08 00:42:00,
2013-08-07 19:52:00,80.0,72.0,29.91,NW,315,0.0,1.0,77,0.00,,,1.74,,2013-08-08 00:52:00,
2013-08-07 20:02:00,80.0,72.0,29.91,NW,315,0.0,1.0,77,0.00,,,1.74,,2013-08-08 01:02:00,
2013-08-07 20:11:00,80.0,71.0,29.91,NW,326,1.0,7.0,75,0.00,,,1.74,,2013-08-08 01:11:00,
2013-08-07 20:22:00,80.0,71.0,29.91,NW,326,1.0,7.0,75,0.00,,,1.74,,2013-08-08 01:22:00,
2013-08-07 20:32:00,79.0,69.0,29.92,North,360,0.0,3.0,72,0.00,,,1.74,,2013-08-08 01:32:00,
2013-08-07 20:43:00,79.0,69.0,29.91,North,5,0.0,4.0,72,0.00,,,1.74,,2013-08-08 01:43:00,
2013-08-07 20:52:00,79.0,69.0,29.91,North,5,0.0,4.0,72,0.00,,,1.74,,2013-08-08 01:52:00,
2013-08-07 21:02:00,77.0,68.0,29.92,North,355,0.0,5.0,74,0.00,,,1.74,,2013-08-08 02:02:00,
2013-08-07 21:11:00,77.0,68.0,29.92,North,355,0.0,5.0,74,0.00,,,1.74,,2013-08-08 02:11:00,
2013-08-07 21:22:00,77.0,69.0,29.93,North,360,0.0,6.0,76,0.00,,,1.74,,2013-08-08 02:22:00,
2013-08-07 21:32:00,76.0,69.0,29.93,North,360,0.0,1.0,78,0.00,,,1.74,,2013-08-08 02:32:00,
2013-08-07 21:42:00,76.0,69.0,29.93,North,360,0.0,1.0,78,0.00,,,1.74,,2013-08-08 02:42:00,
2013-08-07 21:52:00,75.0,68.0,29.94,North,360,0.0,1.0,80,0.00,,,1.74,,2013-08-08 02:52:00,
2013-08-07 22:01:00,74.0,67.0,29.94,North,360,0.0,1.0,80,0.00,,,1.74,,2013-08-08 03:01:00,
2013-08-07 22:12:00,74.0,67.0,29.94,North,360,0.0,1.0,80,0.00,,,1.74,,2013-08-08 03:12:00,
2013-08-07 22:22:00,74.0,67.0,29.95,NNW,346,0.0,1.0,80,0.00,,,1.74,,2013-08-08 03:22:00,
2013-08-07 22:32:00,73.0,66.0,29.96,NNW,346,0.0,1.0,80,0.00,,,1.74,,2013-08-08 03:32:00,
2013-08-07 22:43:00,73.0,66.0,29.96,NNW,346,0.0,1.0,80,0.00,,,1.74,,2013-08-08 03:43:00,
2013-08-07 22:52:00,72.0,66.0,29.96,NNW,348,0.0,0.0,81,0.00,,,1.74,,2013-08-08 03:52:00,
2013-08-07 23:01:00,71.0,65.0,29.96,NNW,348,0.0,0.0,82,0.00,,,1.74,,2013-08-08 04:01:00,
2013-08-07 23:11:00,71.0,65.0,29.96,NNW,348,0.0,0.0,82,0.00,,,1.74,,2013-08-08 04:11:00,
2013-08-07 23:22:00,71.0,66.0,29.96,NNW,348,0.0,0.0,83,0.00,,,1.74,,2013-08-08 04:22:00,
2013-08-07 23:33:00,70.0,65.0,29.96,NNW,348,0.0,0.0,83,0.00,,,1.74,,2013-08-08 04:33:00,
2013-08-07 23:43:00,70.0,65.0,29.96,NNW,348,0.0,0.0,83,0.00,,,1.74,,2013-08-08 04:43:00,
2013-08-07 23:53:00,70.0,64.0,29.96,NNW,348,0.0,0.0,82,0.00,,,1.74,,2013-08-08 04:53:00,